Regional Weather Roundup
Issued by NWS

Home | Current Version | Previous Version | Text Only | Print | Product List | Glossary On
Versions: 1 2 3 4 5 6 7 8 9 10 11 12 13 14 15 16 17 18 19 20 21 22 23 24 25 26 27 28 29 30 31 32 33 34 35 36 37 38 39 40 41 42 43 44 45 46 47 48 49 50
000
ASUS43 KFSD 271610
RWRSD

WEATHER ROUNDUP FOR SOUTH DAKOTA
NATIONAL WEATHER SERVICE SIOUX FALLS SD
1100 AM CDT SAT MAY 27 2017

NOTE: "FAIR" INDICATES FEW OR NO CLOUDS BELOW 12,000 FEET WITH NO
SIGNIFICANT WEATHER AND/OR OBSTRUCTIONS TO VISIBILITY.


SDZ001>005-009-010-012>017-271700-
NORTHWEST AND NORTH CENTRAL SOUTH DAKOTA

CITY           SKY/WX    TMP DP  RH WIND       PRES   REMARKS
BUFFALO          N/A     65  40  39 NW16G28   29.93S
FAITH            N/A     66  39  37 NW13G21   29.96S
MOBRIDGE       SUNNY     70  40  33 W9        29.90S
$$

SDZ012>016-024>037-041>051-057-063-072>074-271700-
SOUTHWEST AND SOUTH CENTRAL SOUTH DAKOTA

CITY           SKY/WX    TMP DP  RH WIND       PRES   REMARKS
RAPID CTY ARPT SUNNY     63  39  41 N16       30.02R
PIERRE         MOSUNNY   61  48  62 W7        29.97S
CUSTER         CLOUDY    51  33  50 N7        30.08R
ELLSWORTH AFB  MOSUNNY   63  39  40 NW16      30.02R
PHILIP         SUNNY     65  48  54 VRB7      29.98F
PINE RIDGE     MOSUNNY   59  49  69 VRB7      30.04S
SPEARFISH      FAIR      59  39  47 NW15G22   30.05S
WINNER         LGT RAIN  57  52  83 NW5       30.00S
$$

SDZ004>011-016>023-039-040-271700-
NORTHEAST SOUTH DAKOTA

CITY           SKY/WX    TMP DP  RH WIND       PRES   REMARKS
ABERDEEN       MOSUNNY   67  43  41 SW18      29.90S
WATERTOWN      CLOUDY    64  47  53 W7        29.91S
BROOKINGS      MOSUNNY   62  49  62 W6        29.93
SISSETON         N/A     73  45  36 W18       29.86S
$$

SDZ017-020-022-023-036>040-048>070-271700-
SOUTHEAST SOUTH DAKOTA

CITY           SKY/WX    TMP DP  RH WIND       PRES   REMARKS
SIOUX FALLS    CLOUDY    59  53  80 VRB5      29.95R
HURON          CLOUDY    66  44  45 NW16      29.92S
CHAMBERLAIN    LGT RAIN  62  51  65 W9        29.98S
MITCHELL       CLOUDY    63  53  70 W10       29.95S
YANKTON        CLOUDY    58  54  86 NW5       29.96S
$$

ABBREVIATIONS USED IN REMARKS
   TC - TEMPERATURE IN CELSIUS
  WCI - WIND CHILL INDEX
   HX - HEAT INDEX
  VSB - VISIBILITY





USA.gov is the U.S. government's official web portal to all federal, state and local government web resources and services.